FREGAT DEB, 45823

Orbit data source: Space-Track

FREGAT DEB, 45823 is space debris in LEO originally from a launch on Mon, 18 Jul 2011 UTC launched from the Tyuratam Missile And Space Complex (TTMTR). Debris objects in space refer to the collection of defunct objects orbiting the Earth. Examples of debris include non-operational satellites, rocket bodies, and fragments generated from explosions, collisions, or faulty payload assembly.

Loading next visibility...
Identifier
45823, 2011-037BH
Orbit
LEO
Country
Flag of CISCIS
Related business
Manufacturer
Lavochkin
Mission
Spacecraft
Bus & Motor
Unknown
Mass
Unknown
Launch date (UTC)
2011-07-18 (14 years ago)
Launch vehicle
Unknown
Launch site
Tyuratam Missile And Space Complex (TTMTR)
Object type
Payload
Rocket body
Debris
Shape & HBR
Unknown shape, 0.3 m
Radar Cross Section
Small (<0.1 m²)

Expand to show TLE details & history
Last TLE update: 1 day ago

TLE from 1 day ago
0 FREGAT DEB
1 45823U 11037BH  25339.93099171  .00004293  00000-0  89255-3 0  9995
2 45823  51.4484 296.1675 1879029 315.9807  30.5521 11.32692679227064
Epoch: 2025-12-05T22:20Z
TLE epoch observation values (Epoch: 2025-12-05T22:20:37.683Z)
Latitude
-0.00002°
Longitude
-113.95554°
Altitude
741.601 km
Speed
8.026 km/s
True Right ascension
19h 44m 40s
True Declination
0° 00' 00"
Sunlit
Object was in daylight at epoch
Visualization orbit readout
Latitude
Unknown
Longitude
Unknown
Altitude
Unknown
Speed
Unknown
Apparent Right ascension
Unknown
Apparent Declination
Unknown
Sunlit
N/A
Visualization observer readout
Local Sidereal Time
04:05:38
Azimuth
Unknown
Elevation
Unknown
Doppler factor
Unknown
Orbital elements
Apogee altitude
3,571.306 km
Perigee altitude
423.693 km
Semi-major axis
8,375.636 km
Eccentricity
0.1879
Inclination
51.4484°
RAAN
296.1675°
Arg. of periapsis
315.9807°
True anomaly
44.1064°
Mean anomaly
30.5521°
Eccentric anomaly
37.03679°
Mean motion
2.8315 °/min
Orbital period
127.14 mins
BSTAR
0.00089255
Loading maneuver chart data...
Computing Atmospheric mass density...
Loading historical data...
Loading historical data...
Loading historical data...
Loading historical data...
Loading historical data...
Loading historical data...
Loading historical data...

Documentation

Showing up to 5 results
|